CZ-6A DEB, 55894

Orbit data source: Space-Track

CZ-6A DEB, 55894 is space debris in SSO originally from a launch on Fri, 11 Nov 2022 UTC launched from the Taiyaun Space Center, China (TSC). Debris objects in space refer to the collection of defunct objects orbiting the Earth. Examples of debris include non-operational satellites, rocket bodies, and fragments generated from explosions, collisions, or faulty payload assembly.

Loading next visibility...
Identifier
55894, 2022-151AAS
Orbit
SSO
Country
Flag of CNCN / PRC
Related business
Manufacturer
SAST
Mission
Spacecraft
Bus & Motor
Unknown
Mass
Unknown
Launch date (UTC)
2022-11-11 (4 years ago)
Launch vehicle
Unknown
Launch site
Taiyaun Space Center, China (TSC)
Object type
Payload
Rocket body
Debris
Shape & HBR
Unknown shape, 0.1 m
Radar Cross Section
Medium (>0.1 m² and <1 m²)

Expand to show TLE details & history
Last TLE update: 2 days ago

TLE from 2 days ago
0 CZ-6A DEB
1 55894U 22151AAS 26171.21950629  .00193464  00000-0  55554-2 0  9996
2 55894  98.6262 265.5352 0025348 204.7647 155.2377 15.34741754187159
Epoch: 2026-06-20T05:16Z
TLE epoch observation values (Epoch: 2026-06-20T05:16:05.343Z)
Latitude
-0.00008°
Longitude
-81.92432°
Altitude
480.515 km
Speed
7.617 km/s
True Right ascension
17h 42m 08s
True Declination
0° 00' 00"
Sunlit
Object was in full shadow at epoch
Visualization orbit readout
Latitude
Unknown
Longitude
Unknown
Altitude
Unknown
Speed
Unknown
Apparent Right ascension
Unknown
Apparent Declination
Unknown
Sunlit
N/A
Visualization observer readout
Local Sidereal Time
21:43:04
Azimuth
Unknown
Elevation
Unknown
Doppler factor
Unknown
Orbital elements
Apogee altitude
476.021 km
Perigee altitude
441.361 km
Semi-major axis
6,836.828 km
Eccentricity
0.00253
Inclination
98.6262°
RAAN
265.5352°
Arg. of periapsis
204.7647°
True anomaly
155.35901°
Mean anomaly
155.2377°
Eccentric anomaly
155.29839°
Mean motion
3.83938 °/min
Orbital period
93.77 mins
BSTAR
0.0055554
Loading maneuver chart data...
Computing Atmospheric mass density...
Loading historical data...
Loading historical data...
Loading historical data...
Loading historical data...
Loading historical data...
Loading historical data...
Loading historical data...

Documentation

Showing up to 5 results
|